CW0005 Weather Reports


time (UTC)temp
F
wind
direction
speed
knots
gust
knots
rain 1hr
in
rain 24hr
in
rain mn
in
humidity
%
barometer
mb
20260905174519 89 192 1.7 6.1 0.00 0.00 0.00 73 1016.4
20260905173014 89 36 1.7 5.2 0.00 0.00 0.00 72 1016.6
20260905171532 88 135 1.7 5.2 0.00 0.00 0.00 70 1016.6
20260905170008 88 135 0.0 4.3 0.00 0.00 0.00 67 1016.3
20260905164517 88 135 0.0 2.6 0.00 0.00 0.00 69 1016.2
20260905163026 88 211 0.9 3.5 0.00 0.00 0.00 68 1016.3
20260905161537 87 135 0.9 2.6 0.00 0.00 0.00 71 1016.2
20260905160037 86 135 0.0 2.6 0.00 0.00 0.00 75 1016.2
20260905154532 85 135 0.0 0.0 0.00 0.00 0.00 78 1016.2
20260905153019 84 32 0.0 0.0 0.00 0.00 0.00 79 1016.1
20260905151516 82 14 0.0 1.7 0.00 0.00 0.00 82 1015.9
20260905150030 81 135 0.0 2.6 0.00 0.00 0.00 86 1015.8
20260905144546 80 135 0.0 0.0 0.00 0.00 0.00 89 1015.6
20260905143019 79 135 0.0 0.0 0.00 0.00 0.00 91 1015.7
20260905141525 78 135 0.0 0.0 0.00 0.00 0.00 92 1015.6
20260905140035 78 135 0.0 0.0 0.00 0.00 0.00 93 1015.4
20260905134523 77 135 0.0 0.0 0.00 0.00 0.00 93 1015.1
20260905133009 77 135 0.0 0.0 0.00 0.00 0.00 94 1014.9
20260905131508 76 135 0.0 0.0 0.00 0.00 0.00 93 1014.9
20260905130006 75 135 0.0 0.0 0.00 0.00 0.00 93 1015.0
20260905124508 74 135 0.0 0.0 0.00 0.00 0.00 92 1014.5
20260905123009 74 135 0.0 0.0 0.00 0.00 0.00 91 1014.5
20260905121507 74 135 0.0 0.0 0.00 0.00 0.00 91 1014.4
20260905120006 74 135 0.0 0.0 0.00 0.00 0.00 91 1014.5
20260905114506 74 135 0.0 0.0 0.00 0.00 0.00 90 1014.3
20260905113008 74 135 0.0 0.0 0.00 0.00 0.00 90 1014.0
20260905111506 74 135 0.0 0.0 0.00 0.00 0.00 90 1013.9
20260905110005 74 135 0.0 0.0 0.00 0.00 0.00 90 1014.1
20260905104506 74 135 0.0 0.0 0.00 0.00 0.00 89 1014.2
20260905103007 75 135 0.0 0.0 0.00 0.00 0.00 89 1014.0
20260905101506 75 135 0.0 0.0 0.00 0.00 0.00 89 1013.9
20260905100008 75 135 0.0 0.0 0.00 0.00 0.00 89 1013.7
20260905094506 75 135 0.0 0.0 0.00 0.00 0.00 88 1013.6
20260905093027 76 135 0.0 0.0 0.00 0.00 0.00 88 1013.5
20260905091508 76 135 0.0 0.0 0.00 0.00 0.00 88 1013.6
20260905090019 76 135 0.0 0.0 0.00 0.00 0.00 88 1013.7
20260905084527 76 135 0.0 0.0 0.00 0.00 0.00 88 1013.8
20260905083017 77 135 0.0 0.0 0.00 0.00 0.00 87 1013.9
20260905081512 77 135 0.0 0.0 0.00 0.00 0.00 86 1014.0
20260905080025 77 135 0.0 0.0 0.00 0.00 0.00 86 1013.9
20260905074517 77 135 0.0 0.0 0.00 0.00 0.00 85 1013.9
20260905073038 78 135 0.0 0.0 0.00 0.00 0.00 85 1013.9
20260905071524 78 135 0.0 0.0 0.00 0.00 0.00 85 1013.9
20260905070033 78 135 0.0 0.0 0.00 0.00 0.00 85 1013.9
20260905064516 78 135 0.0 0.0 0.00 0.00 0.00 84 1014.0
20260905063018 79 135 0.0 0.0 0.00 0.00 0.00 85 1013.9
20260905061547 79 135 0.0 0.0 0.00 0.00 0.00 84 1014.0
20260905060008 79 135 0.0 0.0 0.00 0.00 0.00 84 1014.1
20260905054509 79 135 0.0 0.0 0.00 0.00 0.00 83 1014.0
20260905053004 80 135 0.0 0.0 0.00 0.00 0.00 82 1013.8
20260905051504 80 135 0.0 0.0 0.00 0.00 0.00 81 1013.8
20260905050007 81 135 0.0 0.0 0.00 0.00 0.00 80 1013.8
20260905044515 81 135 0.0 0.0 0.00 0.00 0.00 80 1013.7
20260905043006 81 135 0.0 0.0 0.00 0.00 0.00 79 1013.6
20260905041510 82 135 0.0 0.0 0.00 0.00 0.00 79 1013.6
20260905040014 82 135 0.0 0.0 0.00 0.00 0.00 78 1013.7
20260905034509 83 135 0.0 0.0 0.00 0.00 0.00 77 1013.5
20260905033005 83 300 0.0 0.0 0.00 0.00 0.00 76 1013.6
20260905031507 84 299 0.0 0.0 0.00 0.00 0.00 76 1013.6
20260905030007 84 299 0.0 0.0 0.00 0.00 0.00 75 1013.5
20260905024504 85 299 0.0 0.0 0.00 0.00 0.00 75 1013.6
20260905023008 85 299 0.0 0.0 0.00 0.00 0.00 74 1013.6
20260905021507 85 299 0.0 0.0 0.00 0.00 0.00 74 1013.4
20260905020006 86 299 0.0 0.0 0.00 0.00 0.00 74 1013.5
20260905014504 86 299 0.0 0.0 0.00 0.00 0.00 73 1013.3
20260905013006 86 299 0.0 0.0 0.00 0.00 0.00 72 1013.1
20260905011506 87 299 0.0 0.0 0.00 0.00 0.00 70 1012.9
20260905010018 88 299 0.0 0.0 0.00 0.00 0.00 69 1012.8
20260905004521 89 299 0.0 0.0 0.00 0.00 0.00 67 1012.8
20260905003026 90 299 0.0 0.0 0.00 0.00 0.00 65 1012.8
20260905001527 90 299 0.0 0.0 0.00 0.00 0.00 64 1012.7
20260905000025 91 299 0.0 0.0 0.00 0.00 0.00 62 1012.7
20260904234514 92 299 0.0 0.0 0.00 0.00 0.00 61 1012.7
20260904233007 92 293 0.0 0.9 0.00 0.00 0.00 59 1012.7
20260904231526 93 293 0.0 1.7 0.00 0.00 0.00 58 1012.6
20260904230032 94 67 0.0 1.7 0.00 0.00 0.00 57 1012.6
20260904224523 95 340 0.0 4.3 0.00 0.00 0.00 56 1012.3
20260904223011 95 235 0.0 1.7 0.00 0.00 0.00 55 1012.2
20260904221506 95 15 0.9 3.5 0.00 0.00 0.00 53 1012.3
20260904220008 96 330 0.9 2.6 0.00 0.00 0.00 54 1012.4
20260904214512 95 127 0.0 4.3 0.00 0.00 0.00 54 1012.4
20260904213007 95 103 0.0 2.6 0.00 0.00 0.00 55 1012.3
20260904211506 94 75 0.0 4.3 0.00 0.00 0.00 57 1012.3
20260904210004 93 11 0.9 5.2 0.00 0.00 0.00 60 1012.3
20260904204505 92 354 0.9 3.5 0.00 0.00 0.00 58 1012.4
20260904203004 92 114 0.9 4.3 0.00 0.00 0.00 61 1012.5
20260904201504 93 333 0.9 4.3 0.00 0.00 0.00 60 1012.8
20260904200003 94 19 0.9 3.5 0.00 0.00 0.00 57 1012.8
20260904194503 95 334 0.9 4.3 0.00 0.00 0.00 55 1013.0
20260904193009 95 7 0.9 6.1 0.00 0.00 0.00 58 1012.9
20260904191504 95 351 0.9 5.2 0.00 0.00 0.00 56 1012.7
20260904190004 94 9 0.0 5.2 0.00 0.00 0.00 59 1012.8
20260904184503 93 157 0.9 4.3 0.00 0.00 0.00 58 1012.8
20260904183004 93 306 0.0 5.2 0.00 0.00 0.00 60 1013.1
20260904181505 92 227 0.9 5.2 0.00 0.00 0.00 60 1013.1
20260904180004 91 187 0.9 6.1 0.00 0.00 0.00 61 1013.2